DELTA 1 DEB, 10655

Orbit data source: Space-Track

DELTA 1 DEB, 10655 is space debris in SSO originally from a launch on Thu, 29 Jul 1976 UTC launched from the Air Force Western Test Range (AFWTR). Debris objects in space refer to the collection of defunct objects orbiting the Earth. Examples of debris include non-operational satellites, rocket bodies, and fragments generated from explosions, collisions, or faulty payload assembly.

Loading next visibility...
Identifier
10655, 1976-077R
Orbit
SSO
Country
Flag of USUS
Related business
Manufacturer
Unknown
Mission
Spacecraft
Bus & Motor
Unknown
Mass
Unknown
Launch date (UTC)
1976-07-29 (50 years ago)
Launch vehicle
Unknown
Launch site
Air Force Western Test Range (AFWTR)
Object type
Payload
Rocket body
Debris
Shape & HBR
Unknown shape, 0.2 m
Radar Cross Section
Medium (>0.1 m² and <1 m²)

Expand to show TLE details & history
Last TLE update: 1 day ago

TLE from 1 day ago
0 DELTA 1 DEB
1 10655U 76077R   26033.22428050 -.00000066  00000-0 -19901-3 0  9998
2 10655 102.7631 129.1757 0273733 344.1029  41.6335 12.11374405189917
Epoch: 2026-02-02T05:22Z
TLE epoch observation values (Epoch: 2026-02-02T05:22:57.835Z)
Latitude
27.16722°
Longitude
-90.63062°
Altitude
1,472.141 km
Speed
7.201 km/s
True Right ascension
08h 10m 07s
True Declination
27° 02' 26"
Sunlit
Object was in full shadow at epoch
Visualization orbit readout
Latitude
Unknown
Longitude
Unknown
Altitude
Unknown
Speed
Unknown
Apparent Right ascension
Unknown
Apparent Declination
Unknown
Sunlit
N/A
Visualization observer readout
Local Sidereal Time
11:46:41
Azimuth
Unknown
Elevation
Unknown
Doppler factor
Unknown
Orbital elements
Apogee altitude
1,847.143 km
Perigee altitude
1,408.835 km
Semi-major axis
8,006.126 km
Eccentricity
0.02737
Inclination
102.7631°
RAAN
129.1757°
Arg. of periapsis
344.1029°
True anomaly
43.77158°
Mean anomaly
41.6335°
Eccentric anomaly
42.69705°
Mean motion
3.02977 °/min
Orbital period
118.82 mins
BSTAR
-0.00019901
Loading maneuver chart data...
Computing Atmospheric mass density...
Loading historical data...
Loading historical data...
Loading historical data...
Loading historical data...
Loading historical data...
Loading historical data...
Loading historical data...

Documentation

Showing up to 5 results
|